QFF652 YPPH-YSSY

Flight info

Callsign QFF652
Flight time N/A
Altitude 33000
Route MUBID4/21 MUBID J21 BORLI H205 CULIN Y59 RIVET
Aircraft A306/H-SDE3FGHIRWY/LB1

Departure

Time 2026-05-01 09:05
Airport Perth International Airport (YPPH)

Arrival

Time N/A
Airport Sydney Kingsford Smith International Airport (YSSY)
Time Latitude Longitude Altitude Speed Heading
2026-05-01 08:53 -31.93831 115.95935 74 ft 0 kts 329°
2026-05-01 08:53 -31.93826 115.95931 63 ft 0 kts 329°
2026-05-01 08:56 -31.93844 115.95942 67 ft 4 kts 345°
2026-05-01 08:56 -31.93869 115.95944 69 ft 4 kts 16°
2026-05-01 08:56 -31.93893 115.95930 66 ft 4 kts 43°
2026-05-01 08:57 -31.93908 115.95910 62 ft 1 kts 59°
2026-05-01 08:57 -31.93908 115.95909 62 ft 0 kts 59°
2026-05-01 08:59 -31.93901 115.95922 63 ft 6 kts 59°
2026-05-01 08:59 -31.93865 115.95996 66 ft 12 kts 59°
2026-05-01 08:59 -31.93824 115.96078 66 ft 11 kts 59°
2026-05-01 09:00 -31.93798 115.96154 66 ft 9 kts 94°
2026-05-01 09:00 -31.93834 115.96201 64 ft 8 kts 151°
2026-05-01 09:00 -31.93907 115.96230 64 ft 14 kts 164°
2026-05-01 09:00 -31.94003 115.96296 65 ft 19 kts 140°
2026-05-01 09:01 -31.94081 115.96435 76 ft 19 kts 80°
2026-05-01 09:01 -31.93987 115.96469 71 ft 18 kts 345°
2026-05-01 09:01 -31.93868 115.96407 66 ft 16 kts 334°
2026-05-01 09:01 -31.93764 115.96352 69 ft 25 kts
2026-05-01 09:02 -31.93589 115.96395 69 ft 25 kts 13°
2026-05-01 09:02 -31.93447 115.96387 66 ft 15 kts 316°
2026-05-01 09:02 -31.93360 115.96321 68 ft 17 kts 351°
2026-05-01 09:02 -31.93198 115.96347 69 ft 29 kts 13°
2026-05-01 09:03 -31.93028 115.96506 66 ft 31 kts 45°
2026-05-01 09:03 -31.92864 115.96632 70 ft 26 kts 59°
2026-05-01 09:03 -31.92889 115.96814 73 ft 16 kts 137°
2026-05-01 09:03 -31.92980 115.96816 68 ft 12 kts 194°
2026-05-01 09:04 -31.93036 115.96801 65 ft 8 kts 193°
2026-05-01 09:04 -31.93100 115.96783 70 ft 18 kts 193°
2026-05-01 09:04 -31.93485 115.96668 69 ft 97 kts 194°
2026-05-01 09:04 -31.94372 115.96408 95 ft 168 kts 194°
2026-05-01 09:05 -31.95567 115.96080 984 ft 178 kts 192°
2026-05-01 09:05 -31.96662 115.95778 1806 ft 156 kts 192°
2026-05-01 09:05 -31.97779 115.95450 2194 ft 179 kts 192°
2026-05-01 09:05 -31.99102 115.95054 2527 ft 214 kts 192°
2026-05-01 09:06 -32.00632 115.94675 3187 ft 230 kts 183°
2026-05-01 09:06 -32.02204 115.94999 4116 ft 236 kts 154°
2026-05-01 09:06 -32.03373 115.96391 4996 ft 250 kts 119°
2026-05-01 09:06 -32.03949 115.98353 5947 ft 257 kts 108°
2026-05-01 09:07 -32.04404 116.00413 6875 ft 262 kts 108°
2026-05-01 09:07 -32.04868 116.02520 7799 ft 267 kts 109°
2026-05-01 09:07 -32.05346 116.04626 8717 ft 272 kts 110°
2026-05-01 09:07 -32.05857 116.06793 9693 ft 275 kts 114°
2026-05-01 09:08 -32.06564 116.08901 10453 ft 282 kts 121°
2026-05-01 09:08 -32.07434 116.11068 10802 ft 303 kts 122°
2026-05-01 09:08 -32.08392 116.13390 11120 ft 324 kts 122°
2026-05-01 09:08 -32.09400 116.15850 11421 ft 342 kts 122°
2026-05-01 09:09 -32.10456 116.18445 11719 ft 359 kts 121°
2026-05-01 09:09 -32.11552 116.21155 12134 ft 371 kts 121°
2026-05-01 09:09 -32.12669 116.23926 12682 ft 377 kts 121°
2026-05-01 09:09 -32.13801 116.26735 13285 ft 382 kts 122°
2026-05-01 09:10 -32.14950 116.29584 13851 ft 387 kts 122°
2026-05-01 09:10 -32.16115 116.32474 14384 ft 392 kts 122°
2026-05-01 09:10 -32.17279 116.35363 14873 ft 396 kts 122°
2026-05-01 09:10 -32.18466 116.38314 15377 ft 400 kts 122°
2026-05-01 09:11 -32.19665 116.41294 15885 ft 404 kts 122°
2026-05-01 09:11 -32.20886 116.44316 16409 ft 408 kts 122°
2026-05-01 09:11 -32.22271 116.47241 16922 ft 408 kts 127°
2026-05-01 09:11 -32.23777 116.50111 17436 ft 412 kts 128°
2026-05-01 09:12 -32.25290 116.52954 17929 ft 416 kts 128°
2026-05-01 09:12 -32.26835 116.55861 18419 ft 420 kts 128°
2026-05-01 09:12 -32.28393 116.58799 18842 ft 424 kts 128°
2026-05-01 09:12 -32.29969 116.61775 19284 ft 427 kts 128°
2026-05-01 09:13 -32.31544 116.64758 19721 ft 429 kts 128°
2026-05-01 09:13 -32.33128 116.67762 20168 ft 431 kts 128°
2026-05-01 09:13 -32.34717 116.70776 20605 ft 434 kts 128°
2026-05-01 09:13 -32.36318 116.73814 21033 ft 436 kts 128°
2026-05-01 09:14 -32.37926 116.76868 21458 ft 438 kts 128°
2026-05-01 09:14 -32.39541 116.79940 21880 ft 441 kts 128°
2026-05-01 09:14 -32.41148 116.82998 22288 ft 443 kts 128°
2026-05-01 09:14 -32.42779 116.86105 22701 ft 445 kts 128°
2026-05-01 09:15 -32.44419 116.89232 23115 ft 448 kts 128°
2026-05-01 09:15 -32.46065 116.92373 23541 ft 451 kts 128°
2026-05-01 09:15 -32.47723 116.95538 23869 ft 454 kts 128°
2026-05-01 09:15 -32.49392 116.98727 24187 ft 456 kts 128°
2026-05-01 09:16 -32.51060 117.01921 24554 ft 456 kts 128°
2026-05-01 09:16 -32.52721 117.05129 24901 ft 458 kts 127°
2026-05-01 09:16 -32.54167 117.08528 25246 ft 466 kts 119°
2026-05-01 09:17 -32.56313 117.15837 25910 ft 471 kts 115°
2026-05-01 09:17 -32.57361 117.19635 26265 ft 472 kts 115°
2026-05-01 09:17 -32.59494 117.27342 26888 ft 474 kts 115°
2026-05-01 09:18 -32.60524 117.31055 27176 ft 475 kts 115°
2026-05-01 09:18 -32.62590 117.38512 27721 ft 476 kts 115°
2026-05-01 09:19 -32.64645 117.45950 28584 ft 471 kts 115°
2026-05-01 09:19 -32.65661 117.49635 29083 ft 468 kts 116°
2026-05-01 09:19 -32.66657 117.53252 29513 ft 465 kts 116°
2026-05-01 09:20 -32.68656 117.60515 30389 ft 459 kts 116°
2026-05-01 09:20 -32.70629 117.67702 31037 ft 457 kts 116°
2026-05-01 09:21 -32.72591 117.74861 31652 ft 455 kts 116°
2026-05-01 09:21 -32.73568 117.78435 31956 ft 454 kts 116°
2026-05-01 09:21 -32.75511 117.85559 32589 ft 452 kts 116°
2026-05-01 09:22 -32.77443 117.92658 33178 ft 451 kts 116°
2026-05-01 09:22 -32.79342 117.99667 33240 ft 443 kts 116°
2026-05-01 09:23 -32.82157 118.10067 33236 ft 440 kts 116°
2026-05-01 09:24 -32.84968 118.20484 33250 ft 441 kts 116°
2026-05-01 09:25 -32.88695 118.34376 33234 ft 439 kts 117°
2026-05-01 09:26 -32.91461 118.44718 33230 ft 440 kts 117°
2026-05-01 09:26 -32.94238 118.55149 33232 ft 441 kts 117°
2026-05-01 09:27 -32.96818 118.65694 33228 ft 451 kts 108°
2026-05-01 09:28 -32.97230 118.73289 33234 ft 463 kts 101°
2026-05-01 09:28 -32.97400 118.80938 33221 ft 463 kts 101°
2026-05-01 09:29 -32.97670 118.92406 33222 ft 461 kts 101°
2026-05-01 09:30 -32.97913 119.02604 33220 ft 464 kts 101°
2026-05-01 09:30 -32.98178 119.14187 33214 ft 466 kts 101°
2026-05-01 09:31 -32.98348 119.21901 33219 ft 466 kts 101°
2026-05-01 09:32 -32.98596 119.33495 33216 ft 469 kts 101°
2026-05-01 09:32 -32.98833 119.45117 33212 ft 470 kts 101°
2026-05-01 09:33 -32.98986 119.52903 33207 ft 470 kts 101°
2026-05-01 09:34 -32.99208 119.64622 33203 ft 473 kts 101°
2026-05-01 09:34 -32.99418 119.76347 33202 ft 472 kts 101°
2026-05-01 09:35 -32.99619 119.88081 33202 ft 474 kts 100°
2026-05-01 09:36 -32.99747 119.95918 33193 ft 476 kts 100°
2026-05-01 09:36 -32.99869 120.03817 33205 ft 477 kts 100°
2026-05-01 09:37 -32.99987 120.11715 33228 ft 477 kts 100°
2026-05-01 09:37 -33.00158 120.23646 33195 ft 482 kts 99°
2026-05-01 09:38 -33.00315 120.35643 33181 ft 483 kts 99°
2026-05-01 09:39 -33.00234 120.47676 33179 ft 499 kts 90°
2026-05-01 09:39 -32.99421 120.51742 33175 ft 511 kts 77°
2026-05-01 09:39 -32.97884 120.55608 33179 ft 521 kts 63°
2026-05-01 09:40 -32.91523 120.66205 33180 ft 526 kts 56°
2026-05-01 09:41 -32.86866 120.73481 33181 ft 526 kts 56°
2026-05-01 09:41 -32.86018 120.74814 33175 ft 526 kts 56°
2026-05-01 09:42 -32.85467 120.75683 33174 ft 526 kts 56°
2026-05-01 09:43 -32.84371 120.77416 33173 ft 526 kts 56°
2026-05-01 09:43 -32.83821 120.78286 33175 ft 526 kts 56°
2026-05-01 09:44 -32.82999 120.79591 33176 ft 526 kts 56°
2026-05-01 09:45 -32.82451 120.80461 33177 ft 525 kts 57°
2026-05-01 09:45 -32.81635 120.81760 33104 ft 523 kts 57°